Regional Weather Roundup
Issued by NWS

Home | Current Version | Previous Version | Text Only | Print | Product List | Glossary On
Versions: 1 2 3 4 5 6 7 8 9 10 11 12 13 14 15 16 17 18 19 20 21 22 23 24 25 26 27 28 29 30 31 32 33 34 35 36 37 38 39 40 41 42 43 44 45 46 47 48 49 50
000
ASUS45 KBOI 201610
RWRID

IDAHO REGIONAL WEATHER ROUNDUP
NATIONAL WEATHER SERVICE BOISE ID
900 AM MST MON FEB 20 2017

NOTE: "FAIR" INDICATES FEW OR NO CLOUDS BELOW 12000 FEET
WITH NO SIGNIFICANT WEATHER AND/OR OBSTRUCTIONS TO VISIBILITY

IDZ012-014-201700-
SOUTHWEST IDAHO


CITY           SKY/WX    TMP DP  RH WIND       PRES   REMARKS
BOISE          CLOUDY    49  36  61 SE20G26   29.71S
CALDWELL       CLOUDY    48  37  65 E21G30    29.68S
MOUNTAIN HOME  CLOUDY    42  42  98 E17       29.77R
$$

IDZ016-017-201700-
SOUTHCENTRAL IDAHO


CITY           SKY/WX    TMP DP  RH WIND       PRES   REMARKS
BURLEY         CLOUDY    48  33  56 S24G38    29.87R
JEROME           N/A    N/A N/A N/A MISG      29.86R
TWIN FALLS     CLOUDY    47  33  58 S25G35    29.82R
$$

IDZ019>023-201700-
SOUTHEAST IDAHO


CITY           SKY/WX    TMP DP  RH WIND       PRES   REMARKS
IDAHO FALLS    CLOUDY    36  34  92 CALM      29.89F
POCATELLO      CLOUDY    44  34  67 S30G37    29.88R
REXBURG        CLOUDY    38  32  79 S12       29.88F WCI  30
$$

IDZ006-010-011-018-031-032-201700-
CENTRAL IDAHO MOUNTAINS


CITY           SKY/WX    TMP DP  RH WIND       PRES   REMARKS
MCCALL         LGT RAIN  36  31  82 S21G32    29.63F WCI  25
HAILEY         LGT SNOW  32  32 100 CALM      29.88R VSB 1
STANLEY          N/A     33  31  92 SE13G21   29.74F WCI  24
SALMON         MOSUNNY   32  28  86 CALM      29.74F
CHALLIS        PTSUNNY   31  28  89 CALM      29.76F
$$

IDZ002-004-006-007-026-201700-
NORTHERN IDAHO


CITY           SKY/WX    TMP DP  RH WIND       PRES   REMARKS
LEWISTON       LGT RAIN  39  36  89 S6        29.60F WCI  35
LOWELL           N/A     35  33  92 NW5       29.67F WCI  31
COEUR D`ALENE  LGT RAIN  33  32  96 N7        29.61S WCI  27
MULLAN PASS    SNOW      24  23  96 SE8       29.54S VSB 1/4 WCI  15
$$



USA.gov is the U.S. government's official web portal to all federal, state and local government web resources and services.